Fourchu: Past 24 Hour Conditions

 

St.Paul Island

12:00 AM AST 26 November 2014
This table is a summary of hourly weather conditions for the past 24 hours.
Date / Time
(AST)
Wind(knots) Conditions Visibility(km) Pressure(kPa) Air tempC) Relative humidity(%) Dew pointC)
26 November 2014
0:00 W 26 N/A N/A 100.9 8 63 1
25 November 2014
23:00 WNW 20 gust 25 N/A N/A 100.8 7 70 2
22:00 WNW 25 N/A N/A 100.8 8 70 3
21:00 W 24 N/A N/A 100.7 8 77 4
20:00 W 24 N/A N/A 100.6 9 82 6
19:00 WSW 23 N/A N/A 100.6 10 80 7
18:00 WSW 21 N/A N/A 100.6 10 79 7
17:00 SW 21 N/A N/A 100.5 14 69 8
16:00 SW 23 gust 30 N/A N/A 100.5 16 62 9
15:00 SW 18 N/A N/A 100.4 13 70 8
14:00 WSW 22 N/A N/A 100.3 11 75 7
13:00 SSW 25 gust 31 N/A N/A 100.3 16 63 8
12:00 SSW 20 gust 27 N/A N/A 100.4 16 64 9
11:00 SSW 26 gust 32 N/A N/A 100.4 16 68 10
10:00 SSW 25 gust 30 N/A N/A 100.4 14 77 10
9:00 SW 22 gust 29 N/A N/A 100.3 13 82 10
8:00 WSW 32 N/A N/A 100.2 12 84 10
7:00 WSW 30 N/A N/A 100.1 12 87 10
6:00 WSW 34 gust 39 N/A N/A 100.0 13 84 11
5:00 SW 27 gust 34 N/A N/A 100.1 13 82 10
4:00 SW 29 gust 37 N/A N/A 100.1 13 75 12
3:00 S 25 gust 36 N/A N/A 100.2 11 98 10
2:00 S 32 N/A N/A 100.3 10 98 10
1:00 S 32 N/A N/A 100.5 9 98 8
0:00 S 34 gust 40 N/A N/A 100.6 8 98 7
 
Map of Atlantic - Newfoundland marine weather areas Southwestern Grand Banks - 44138 Banquereau - 44139 Tail of the Bank - 44140 Nickerson Bank - 44251 Northeast Burgeo Bank - 44255 Blanc-Sablon Airport Cap Whittle Chevery Natashquan Airport Heath Point Miscou Island Grand Étang Ingonish Beach North Mountain St.Paul Island J.A. Douglas McCurdy Sydney Airport Charlottetown Airport East Point North Cape Argentia Bonavista Burgeo Cape Race Corner Brook Daniel's Harbour Englee Ferolle Point La Scie Port aux Basques Rocky Harbour Sagona Island St. Anthony Airport St. John's Int'l Airport St. Lawrence Stephenville Airport Twillingate Winterland Wreckhouse Cartwright Airport Mary's Harbour Grates Cove Pool's Island Marticot Island Long Pond Îles de la Madeleine Airport
Legend: buoyBuoy land stationLand Station